[[{"header":{"parameterUnit":"m.s-1","parameterCategory":2,"la1":30.2991,"la2":30.254,"lo1":-89.0895,"lo2":-89.0444,"dy":0.0017,"dx":0.0017,"nx":28,"ny":28,"refTime":"2024-02-06T09:00:00:Z","depth":"0","parameterNumber":2,"parameterNumberName":"U-component_of_CURRENTS"},"data":[0,0,0,0,0,0,0,0,0,0,0,0,0,0,0,0,0,0,0,0,0,0,0,0,0,0,0,0,0,0,0,0,0,0,0,0,0,0,0,0,0,0,0,0,0,0,0,0,0,0,0,0,0,0,0,0,0,0,-0.2687,-0.2688,0,-0.2757,-0.2758,-0.2758,-0.2772,-0.2772,-0.2772,-0.2771,-0.2752,-0.2752,-0.2752,0,0,0,0,0,0,0,0,0,0,0,0,0,-0.2507,-0.251,-0.2687,-0.2688,-0.2689,-0.2757,-0.2758,-0.2758,-0.2772,-0.2772,-0.2772,-0.2771,-0.2752,-0.2752,-0.2751,0,0,0,0,0,0,0,0,0,0,0,0,0,-0.2579,-0.2511,-0.2687,-0.2706,-0.2709,-0.2757,-0.2758,-0.2759,-0.2772,-0.2772,-0.2772,-0.2771,-0.2752,-0.2752,-0.2751,-0.2758,0,0,-0.275,-0.275,0,0,0,0,0,0,0,0,-0.2575,-0.2586,-0.2702,-0.2705,-0.2708,-0.2758,-0.2687,-0.2755,-0.2773,-0.2745,-0.2771,-0.2771,-0.2748,-0.2748,-0.2759,-0.2757,-0.2756,-0.275,-0.275,-0.275,-0.275,0,0,0,0,0,0,0,-0.257,-0.2582,-0.2712,-0.2704,-0.2707,-0.2692,-0.2702,-0.27,-0.2744,-0.2748,-0.275,-0.2762,-0.2748,-0.276,-0.2759,-0.2756,-0.275,-0.275,-0.275,-0.275,-0.2696,-0.2694,0,0,0,0,0,0,-0.2572,-0.2578,-0.271,-0.2714,-0.2642,-0.2696,-0.2707,-0.274,-0.2746,-0.2749,-0.2762,-0.2762,-0.2761,-0.2759,-0.2758,-0.2727,-0.275,-0.275,-0.2749,-0.2697,-0.2695,-0.2694,0,0,0,0,0,0,-0.2568,-0.2583,-0.2707,-0.2648,-0.2663,-0.27,-0.2737,-0.2742,-0.2752,-0.2759,-0.2759,-0.2767,-0.276,-0.2758,-0.2745,-0.2728,-0.2749,-0.2749,-0.2698,-0.2696,-0.2695,-0.269,0,0,0,0,0,0,-0.2563,-0.2582,-0.2597,-0.2649,-0.2667,-0.2723,-0.2738,-0.2744,-0.2761,-0.2762,-0.2763,-0.2761,-0.276,-0.2746,-0.2745,-0.2728,-0.2749,-0.27,-0.2697,-0.2695,-0.2692,-0.2688,-0.2685,0,0,0,0,0,-0.2556,-0.2583,-0.2598,-0.2613,-0.2691,-0.2724,-0.273,-0.2752,-0.2762,-0.276,-0.276,-0.2761,-0.273,-0.2745,-0.2744,-0.2726,-0.2701,-0.2698,-0.2695,-0.2693,-0.2689,-0.2685,0,0,0,0,0,0,-0.2511,-0.2589,-0.2606,-0.2655,-0.268,-0.2726,-0.2732,-0.2752,-0.2755,-0.2752,-0.2757,-0.2754,-0.2732,-0.2728,-0.2745,-0.27,-0.2711,-0.2708,-0.2709,-0.2706,-0.2702,-0.2695,-0.2748,0,0,0,0,0,-0.251,-0.2549,-0.2608,-0.2639,-0.2655,-0.2693,-0.2708,-0.2725,-0.2742,-0.2744,-0.2745,-0.2736,-0.2722,-0.2714,-0.2702,-0.2687,-0.2669,-0.2669,-0.2666,-0.2663,-0.2654,-0.2614,-0.2606,-0.2685,-0.2685,-0.2685,0,0,-0.2499,-0.2547,-0.2567,-0.263,-0.2654,-0.2674,-0.27,-0.2722,-0.2728,-0.2739,-0.2735,-0.2728,-0.2715,-0.2693,-0.2682,-0.2688,-0.2631,-0.266,-0.2658,-0.265,-0.261,-0.2602,-0.2596,-0.2683,-0.2683,-0.2684,0,0,-0.2487,-0.2539,-0.2561,-0.2588,-0.2629,-0.2655,-0.2661,-0.2702,-0.2706,-0.2708,-0.2708,-0.2688,-0.2681,-0.2662,-0.2652,-0.2622,-0.2616,-0.2618,-0.2599,-0.2561,-0.2554,-0.2548,-0.2518,-0.2509,-0.2617,-0.2617,-0.2617,0,-0.2465,-0.2512,-0.2564,-0.2588,-0.2604,-0.2645,-0.2656,-0.2671,-0.2697,-0.2693,-0.2697,-0.267,-0.266,-0.2627,-0.2615,-0.2614,-0.2598,-0.2621,-0.2557,-0.2551,-0.2545,-0.2515,-0.2506,-0.2617,-0.2617,-0.2617,-0.2617,0,-0.2468,-0.2501,-0.2512,-0.256,-0.2582,-0.2596,-0.2632,-0.2641,-0.2653,-0.2663,-0.2637,-0.2623,-0.2604,-0.2595,-0.2599,-0.255,-0.2555,-0.2561,-0.2572,-0.2537,-0.2508,-0.2498,-0.2616,-0.2616,-0.2616,-0.2616,0,0,-0.2421,-0.25,-0.2498,-0.2518,-0.2569,-0.2589,-0.2597,-0.2612,-0.2615,-0.2614,-0.2598,-0.2567,-0.2565,-0.2552,-0.2548,-0.2515,-0.2461,-0.2522,-0.2521,-0.25,-0.2381,-0.2337,-0.2322,-0.2462,-0.2461,-0.2459,-0.238,0,-0.2396,-0.2432,-0.2476,-0.2494,-0.2516,-0.2557,-0.2565,-0.2583,-0.2591,-0.2585,-0.2561,-0.2543,-0.2548,-0.2538,-0.2504,-0.2478,-0.2434,-0.2482,-0.2411,-0.2408,-0.2379,-0.2308,-0.2238,-0.2156,-0.237,-0.2369,-0.2368,0,-0.2373,-0.2406,-0.2423,-0.2478,-0.2489,-0.2501,-0.2524,-0.2538,-0.2543,-0.2547,-0.2527,-0.2521,-0.2476,-0.2481,-0.2405,-0.2441,-0.2402,-0.2377,-0.2374,-0.2324,-0.2344,-0.2223,-0.213,-0.2118,-0.2352,-0.2354,-0.2355,0,-0.2312,-0.2365,-0.2376,-0.2395,-0.246,-0.2465,-0.2491,-0.2515,-0.252,-0.2518,-0.2513,-0.2476,-0.2451,-0.2399,-0.2357,-0.2379,-0.2269,-0.2293,-0.2209,-0.2207,-0.2125,-0.2118,-0.2015,-0.2211,-0.2211,-0.2211,-0.2211,0,-0.2273,-0.2279,-0.2351,-0.2359,-0.2368,-0.243,-0.243,-0.2457,-0.2475,-0.2465,-0.2484,-0.2457,-0.2428,-0.2375,-0.2335,-0.2236,-0.2246,-0.218,-0.217,-0.2122,-0.2115,-0.2085,-0.2108,-0.2208,-0.2209,-0.2209,-0.221,0,-0.2197,-0.2246,-0.2265,-0.2326,-0.2342,-0.2346,-0.2396,-0.2397,-0.2435,-0.2419,-0.2415,-0.2425,-0.2362,-0.2322,-0.2237,-0.2198,-0.2073,-0.2078,-0.2028,-0.2012,-0.1927,-0.1952,-0.1813,-0.1762,-0.1967,-0.1965,-0.1964,0,-0.216,-0.2165,-0.2222,-0.2227,-0.2249,-0.2274,-0.2287,-0.2354,-0.236,-0.2388,-0.2366,-0.2331,-0.2279,-0.216,-0.2082,-0.1983,-0.1981,-0.1867,-0.1882,-0.1882,-0.1903,-0.1914,-0.1883,-0.1777,-0.1774,-0.1772,-0.177,0,-0.2078,-0.2098,-0.2115,-0.2127,-0.2143,-0.2166,-0.2195,-0.2195,-0.2261,-0.2259,-0.2237,-0.2203,-0.2123,-0.1997,-0.1897,-0.1834,-0.1822,-0.1814,-0.1813,-0.1729,-0.1731,-0.1692,-0.1891,-0.1748,-0.175,-0.1752,-0.1753,-0.1754,-0.1999,-0.1988,-0.2006,-0.2006,-0.2029,-0.2028,-0.1996,-0.204,-0.2032,-0.1996,-0.2057,-0.1979,-0.193,-0.1781,-0.1723,-0.1614,-0.1653,-0.1569,-0.1595,-0.1604,-0.1554,-0.1708,-0.1559,-0.156,-0.1561,-0.1562,-0.1563,0,-0.1886,-0.1882,-0.1881,-0.1876,-0.1846,-0.1901,-0.1905,-0.1849,-0.1791,-0.1812,-0.1772,-0.1717,-0.1612,-0.1583,-0.1487,-0.1418,-0.1393,-0.1389,-0.1392,-0.1368,-0.149,-0.1482,-0.131,-0.131,-0.131,-0.131,-0.131,-0.131,-0.1823,-0.1775,-0.1776,-0.1686,-0.1679,-0.159,-0.1559,-0.1509,-0.1494,-0.1413,-0.1399,-0.1425,-0.1422,-0.1481,-0.1385,-0.1326,-0.1299,-0.1251,-0.1271,-0.1386,-0.1406,-0.1425,-0.142,-0.1238,-0.1238,-0.11,-0.1099,-0.1098]},{"header":{"parameterUnit":"m.s-1","parameterCategory":2,"la1":30.2991,"la2":30.254,"lo1":-89.0895,"lo2":-89.0444,"dy":0.0017,"dx":0.0017,"nx":28,"ny":28,"refTime":"2024-02-06T09:00:00:Z","depth":"0","parameterNumber":3,"parameterNumberName":"V-component_of_CURRENTS"},"data":[0,0,0,0,0,0,0,0,0,0,0,0,0,0,0,0,0,0,0,0,0,0,0,0,0,0,0,0,0,0,0,0,0,0,0,0,0,0,0,0,0,0,0,0,0,0,0,0,0,0,0,0,0,0,0,0,0,0,-0.027,-0.0269,0,-0.0168,-0.0167,-0.0166,-0.0095,-0.0095,-0.0095,-0.0094,0.0014,0.0016,0.0019,0,0,0,0,0,0,0,0,0,0,0,0,0,-0.0329,-0.0328,-0.0271,-0.0269,-0.0268,-0.0168,-0.0167,-0.0166,-0.0096,-0.0095,-0.0094,-0.0094,0.0013,0.0016,0.0019,0,0,0,0,0,0,0,0,0,0,0,0,0,-0.0272,-0.0328,-0.0271,-0.0222,-0.0216,-0.0169,-0.0167,-0.0165,-0.0096,-0.0095,-0.0094,-0.0094,0.0012,0.0016,0.0019,0.0028,0,0,0.003,0.0032,0,0,0,0,0,0,0,0,-0.0276,-0.027,-0.023,-0.0225,-0.0219,-0.0144,-0.0148,-0.01,-0.0096,-0.0141,-0.0094,-0.0093,-0.004,-0.0032,-0.0013,0.0033,0.0038,0.0031,0.0033,0.0035,0.0036,0,0,0,0,0,0,0,-0.028,-0.0274,-0.0229,-0.0229,-0.0222,-0.0178,-0.017,-0.0138,-0.0095,-0.0137,-0.0132,-0.0121,-0.0036,-0.0017,-0.001,0.0039,0.0031,0.0034,0.0036,0.0038,0.0104,0.0104,0,0,0,0,0,0,-0.0299,-0.0278,-0.0233,-0.0226,-0.0247,-0.0178,-0.0169,-0.0169,-0.0095,-0.0083,-0.0122,-0.0119,-0.0023,-0.0014,-0.0006,0.0016,0.0035,0.0038,0.004,0.0104,0.0104,0.0103,0,0,0,0,0,0,-0.03,-0.0296,-0.0237,-0.025,-0.0239,-0.0179,-0.0178,-0.0167,-0.0147,-0.0084,-0.0072,-0.0115,-0.0022,-0.0011,0.002,0.0021,0.004,0.0043,0.0105,0.0104,0.0104,0.0056,0,0,0,0,0,0,-0.0303,-0.0297,-0.0307,-0.0251,-0.0239,-0.0218,-0.0178,-0.0165,-0.0143,-0.0137,-0.0074,-0.0063,-0.0021,0.0014,0.0023,0.0026,0.0046,0.0106,0.0105,0.0104,0.0058,0.0053,0.005,0,0,0,0,0,-0.0305,-0.0327,-0.0308,-0.0302,-0.0253,-0.0219,-0.0209,-0.0162,-0.0143,-0.0141,-0.0097,-0.0065,0.0015,0.0016,0.0028,0.0031,0.0106,0.0105,0.0104,0.0059,0.0054,0.005,0,0,0,0,0,0,-0.0358,-0.032,-0.0298,-0.0307,-0.0269,-0.0207,-0.0203,-0.0171,-0.0133,-0.0129,-0.0069,-0.0055,-0.003,0.0003,0.0002,0.0046,0.0065,0.0066,0.0028,0.0023,0.0019,0.0016,0.0049,0,0,0,0,0,-0.0375,-0.0378,-0.0329,-0.0334,-0.032,-0.0263,-0.0244,-0.0213,-0.017,-0.0153,-0.0107,-0.0063,-0.0025,-0.0001,0.0032,0.0058,0.0094,0.0066,0.0062,0.0059,0.0063,0.0113,0.0114,0.01,0.01,0.01,0,0,-0.0396,-0.0374,-0.0376,-0.0345,-0.0311,-0.0295,-0.025,-0.023,-0.021,-0.0148,-0.0118,-0.008,-0.0025,0.0005,0.002,0.0035,0.0079,0.0057,0.0054,0.0061,0.0112,0.0114,0.0115,0.01,0.01,0.01,0,0,-0.0437,-0.0421,-0.0435,-0.0406,-0.0365,-0.0328,-0.0327,-0.0272,-0.0243,-0.0213,-0.0162,-0.0122,-0.007,-0.002,0.001,0.0002,0.005,0.0006,-0.0005,0.0043,0.0045,0.0047,0.0085,0.0091,0.0012,0.0012,0.0011,0,-0.0461,-0.0467,-0.0433,-0.0429,-0.0407,-0.0348,-0.0346,-0.0309,-0.025,-0.0224,-0.0214,-0.0121,-0.0078,-0.002,-0.002,-0.0004,0.0024,0.001,0.0038,0.0041,0.0044,0.0083,0.009,0.0009,0.0009,0.001,0.001,0,-0.0501,-0.0502,-0.0506,-0.048,-0.0456,-0.0445,-0.0389,-0.0363,-0.0326,-0.0278,-0.0226,-0.0164,-0.0101,-0.0086,-0.0052,-0.0007,0.0006,0.0021,0.0051,0.0043,0.0084,0.0092,0.0006,0.0006,0.0007,0.0008,0,0,-0.0557,-0.0539,-0.0539,-0.0531,-0.048,-0.0463,-0.0434,-0.0383,-0.0353,-0.03,-0.0256,-0.0189,-0.0147,-0.011,-0.006,-0.0015,0.0028,0.0008,0.0012,0.0047,0.0127,0.0158,0.017,0.0047,0.0048,0.005,0.0144,0,-0.0591,-0.0611,-0.0583,-0.0581,-0.0579,-0.0514,-0.0492,-0.0437,-0.0376,-0.0321,-0.0245,-0.0193,-0.0157,-0.0128,-0.0075,0.0006,0.0049,0.0001,0.0129,0.0133,0.0163,0.0181,0.0208,0.0296,0.0152,0.0154,0.0155,0,-0.063,-0.0636,-0.0658,-0.0627,-0.062,-0.0609,-0.0546,-0.0511,-0.0416,-0.037,-0.0292,-0.023,-0.0143,-0.0125,0.0015,-0.0019,0.0047,0.0104,0.0109,0.0164,0.0181,0.0283,0.0317,0.0414,0.0168,0.0167,0.0166,0,-0.0684,-0.0679,-0.0701,-0.0689,-0.0654,-0.0645,-0.0614,-0.0532,-0.0492,-0.0392,-0.0355,-0.0244,-0.0182,-0.0087,0.0039,0.0026,0.0185,0.0186,0.0275,0.0277,0.034,0.0346,0.0487,0.0273,0.0272,0.0272,0.0272,0,-0.0726,-0.0736,-0.0732,-0.074,-0.0754,-0.07,-0.0681,-0.0627,-0.0542,-0.049,-0.0386,-0.0319,-0.0171,-0.0059,0.0038,0.0194,0.0191,0.0283,0.0311,0.0322,0.0325,0.0445,0.0475,0.0276,0.0275,0.0274,0.0274,0,-0.0777,-0.0777,-0.0798,-0.0788,-0.0784,-0.0791,-0.0738,-0.0712,-0.0627,-0.0552,-0.0526,-0.0365,-0.0206,-0.006,0.0117,0.0201,0.0403,0.0384,0.0384,0.0411,0.0572,0.0597,0.0763,0.0823,0.0497,0.0498,0.0499,0,-0.0804,-0.0828,-0.0847,-0.0867,-0.0865,-0.086,-0.0853,-0.077,-0.0725,-0.0572,-0.054,-0.037,-0.0227,0.0048,0.0232,0.042,0.0483,0.0535,0.0518,0.06,0.0649,0.0659,0.0698,0.058,0.0582,0.0583,0.0585,0,-0.0851,-0.0866,-0.0891,-0.0938,-0.0951,-0.0949,-0.0921,-0.0899,-0.0781,-0.0695,-0.054,-0.0413,-0.0126,0.0134,0.0375,0.0477,0.061,0.0569,0.0666,0.0742,0.0752,0.0816,0.0488,0.0598,0.0596,0.0595,0.0595,0.0594,-0.0883,-0.0922,-0.0961,-0.1001,-0.102,-0.1021,-0.1001,-0.0938,-0.0855,-0.0687,-0.0555,-0.0319,0.0039,0.0405,0.0525,0.0775,0.0735,0.0835,0.0863,0.087,0.0922,0.0615,0.0745,0.0744,0.0744,0.0744,0.0743,0,-0.0913,-0.0959,-0.1009,-0.1055,-0.1081,-0.1069,-0.1028,-0.097,-0.0858,-0.0677,-0.0493,-0.0055,0.0285,0.0589,0.0945,0.1064,0.1081,0.1115,0.1143,0.1172,0.0923,0.0921,0.1079,0.1079,0.1079,0.1079,0.1079,0.1079,-0.0931,-0.0993,-0.1026,-0.1088,-0.1112,-0.11,-0.1068,-0.0956,-0.0807,-0.0494,-0.0216,0.0012,0.0446,0.1013,0.1323,0.1335,0.143,0.1414,0.147,0.1298,0.1274,0.125,0.1258,0.1484,0.1485,0.1712,0.1714,0.1716]}],[{"header":{"parameterUnit":"m.s-1","parameterCategory":2,"la1":30.2991,"la2":30.254,"lo1":-89.0895,"lo2":-89.0444,"dy":0.0017,"dx":0.0017,"nx":28,"ny":28,"refTime":"2024-02-06T09:00:00:Z","depth":"2","parameterNumber":2,"parameterNumberName":"U-component_of_CURRENTS"},"data":[0,0,0,0,0,0,0,0,0,0,0,0,0,0,0,0,0,0,0,0,0,0,0,0,0,0,0,0,0,0,0,0,0,0,0,0,0,0,0,0,0,0,0,0,0,0,0,0,0,0,0,0,0,0,0,0,0,0,-0.2187,-0.2187,0,-0.2215,-0.2215,-0.2215,-0.2209,-0.2209,-0.2209,-0.2209,-0.2228,-0.2229,-0.223,0,0,0,0,0,0,0,0,0,0,0,0,0,-0.2072,-0.2074,-0.2187,-0.2187,-0.2188,-0.2215,-0.2215,-0.2215,-0.2209,-0.2209,-0.2209,-0.2209,-0.2228,-0.2229,-0.223,0,0,0,0,0,0,0,0,0,0,0,0,0,-0.2109,-0.2074,-0.2187,-0.2192,-0.2193,-0.2215,-0.2215,-0.2215,-0.2209,-0.2209,-0.2209,-0.2209,-0.2228,-0.2229,-0.223,-0.2238,0,0,-0.2233,-0.2233,0,0,0,0,0,0,0,0,-0.2107,-0.2112,-0.219,-0.2192,-0.2193,-0.2212,-0.2182,-0.2224,-0.2209,-0.2198,-0.2209,-0.2209,-0.2225,-0.2226,-0.2226,-0.2239,-0.224,-0.2233,-0.2233,-0.2234,-0.2234,0,0,0,0,0,0,0,-0.2104,-0.2111,-0.2193,-0.2191,-0.2193,-0.2174,-0.2179,-0.2189,-0.2208,-0.2199,-0.22,-0.221,-0.2225,-0.2225,-0.2226,-0.224,-0.2233,-0.2233,-0.2234,-0.2234,-0.2241,-0.2241,0,0,0,0,0,0,-0.2114,-0.2109,-0.2192,-0.2194,-0.2154,-0.2177,-0.2182,-0.2202,-0.2209,-0.2211,-0.2211,-0.221,-0.2223,-0.2225,-0.2227,-0.2235,-0.2234,-0.2234,-0.2235,-0.2241,-0.2241,-0.2241,0,0,0,0,0,0,-0.2111,-0.2121,-0.2191,-0.2155,-0.2163,-0.218,-0.2202,-0.2203,-0.2213,-0.2218,-0.2219,-0.2221,-0.2223,-0.2226,-0.224,-0.2236,-0.2235,-0.2236,-0.2242,-0.2241,-0.2241,-0.2252,0,0,0,0,0,0,-0.2108,-0.212,-0.2132,-0.2156,-0.2166,-0.2207,-0.2203,-0.2204,-0.2222,-0.2221,-0.2228,-0.2229,-0.2223,-0.2239,-0.2241,-0.2237,-0.2236,-0.2242,-0.2242,-0.2241,-0.2253,-0.2252,-0.2252,0,0,0,0,0,-0.2104,-0.2121,-0.2132,-0.2142,-0.2184,-0.2207,-0.221,-0.2217,-0.2223,-0.2225,-0.2231,-0.2229,-0.2235,-0.224,-0.2242,-0.2238,-0.2243,-0.2242,-0.2241,-0.2253,-0.2252,-0.2252,0,0,0,0,0,0,-0.2073,-0.2123,-0.2136,-0.2167,-0.2188,-0.2208,-0.2213,-0.2226,-0.2233,-0.2233,-0.2236,-0.2238,-0.2242,-0.2242,-0.2247,-0.2235,-0.2234,-0.2233,-0.2242,-0.2241,-0.2241,-0.2228,-0.2237,0,0,0,0,0,-0.2076,-0.2101,-0.2142,-0.2162,-0.2177,-0.2198,-0.2209,-0.2219,-0.2233,-0.2236,-0.2243,-0.2243,-0.2239,-0.2243,-0.2239,-0.2247,-0.2227,-0.2241,-0.2241,-0.2241,-0.223,-0.2197,-0.2193,-0.2238,-0.2238,-0.2238,0,0,-0.2069,-0.2099,-0.2113,-0.2157,-0.2172,-0.2191,-0.2202,-0.2224,-0.2232,-0.2238,-0.2247,-0.2247,-0.224,-0.2238,-0.2239,-0.2241,-0.2218,-0.224,-0.224,-0.2229,-0.2196,-0.2191,-0.2188,-0.2237,-0.2237,-0.2237,0,0,-0.2061,-0.2097,-0.2112,-0.2136,-0.217,-0.2186,-0.2199,-0.2229,-0.2233,-0.225,-0.2245,-0.2242,-0.2253,-0.2236,-0.2231,-0.2229,-0.2217,-0.2232,-0.2227,-0.2196,-0.2192,-0.2188,-0.2162,-0.2156,-0.2235,-0.2235,-0.2235,0,-0.2049,-0.2078,-0.2116,-0.2136,-0.2152,-0.2188,-0.2201,-0.2215,-0.2243,-0.2244,-0.2252,-0.2244,-0.2243,-0.2226,-0.2222,-0.2227,-0.2213,-0.2232,-0.2195,-0.2191,-0.2187,-0.2162,-0.2155,-0.2236,-0.2236,-0.2236,-0.2235,0,-0.205,-0.2075,-0.2085,-0.2124,-0.2146,-0.2163,-0.2198,-0.2214,-0.2231,-0.224,-0.2236,-0.2231,-0.2223,-0.2222,-0.2225,-0.2196,-0.2197,-0.2198,-0.2197,-0.2183,-0.2158,-0.215,-0.2236,-0.2236,-0.2236,-0.2236,0,0,-0.2013,-0.2074,-0.2075,-0.2093,-0.2142,-0.2161,-0.218,-0.2201,-0.221,-0.2223,-0.2218,-0.2207,-0.2208,-0.2201,-0.22,-0.2177,-0.2141,-0.2181,-0.2179,-0.2158,-0.2078,-0.203,-0.2017,-0.2142,-0.2141,-0.214,-0.2074,0,-0.1996,-0.2025,-0.206,-0.2084,-0.2105,-0.2146,-0.2162,-0.2187,-0.2204,-0.2209,-0.2199,-0.2195,-0.22,-0.2199,-0.2174,-0.2152,-0.2121,-0.2158,-0.2092,-0.209,-0.205,-0.2006,-0.1883,-0.1809,-0.2067,-0.2066,-0.2065,0,-0.1978,-0.2003,-0.2023,-0.2073,-0.2085,-0.2104,-0.2138,-0.2158,-0.2176,-0.2187,-0.2182,-0.2184,-0.2157,-0.2161,-0.2102,-0.2131,-0.2099,-0.2077,-0.2074,-0.2016,-0.2027,-0.1863,-0.1786,-0.2052,-0.2053,-0.2054,-0.2055,0,-0.1928,-0.1975,-0.1989,-0.2007,-0.2068,-0.2081,-0.2111,-0.2144,-0.2156,-0.2172,-0.2175,-0.2155,-0.2141,-0.21,-0.2066,-0.2085,-0.1994,-0.2012,-0.1932,-0.1929,-0.18,-0.1788,-0.1946,-0.1946,-0.1946,-0.1946,-0.1946,0,-0.1896,-0.1905,-0.1969,-0.1978,-0.1994,-0.2054,-0.2068,-0.2098,-0.2127,-0.2127,-0.2157,-0.2141,-0.2125,-0.2083,-0.2049,-0.1962,-0.1976,-0.1909,-0.1898,-0.1802,-0.1791,-0.1986,-0.1991,-0.1944,-0.1944,-0.1945,-0.1945,0,-0.1833,-0.1876,-0.1896,-0.1955,-0.1972,-0.1984,-0.204,-0.2049,-0.2096,-0.2094,-0.2097,-0.2117,-0.2068,-0.2038,-0.1968,-0.1931,-0.186,-0.1823,-0.1717,-0.1693,-0.1823,-0.183,-0.1724,-0.1721,-0.1719,-0.1717,-0.1716,0,-0.1801,-0.1807,-0.1861,-0.1869,-0.1893,-0.1926,-0.1943,-0.2013,-0.2024,-0.2066,-0.205,-0.2032,-0.1988,-0.1885,-0.1814,-0.1726,-0.1783,-0.1566,-0.1569,-0.1795,-0.1795,-0.1806,-0.1815,-0.1407,-0.1403,-0.14,-0.1397,0,-0.1731,-0.1752,-0.1768,-0.1783,-0.1803,-0.1827,-0.1862,-0.1866,-0.1937,-0.1941,-0.1928,-0.1902,-0.1834,-0.169,-0.1601,-0.1538,-0.1575,-0.1499,-0.1731,-0.1493,-0.1493,-0.1495,-0.1515,-0.1369,-0.1372,-0.1374,-0.1375,-0.1376,-0.1665,-0.1654,-0.1672,-0.1677,-0.1702,-0.1703,-0.1677,-0.172,-0.1716,-0.169,-0.1751,-0.1664,-0.1645,-0.1439,-0.1353,-0.1288,-0.1394,-0.1328,-0.1339,-0.1353,-0.1338,-0.1335,-0.1179,-0.118,-0.1182,-0.1183,-0.1184,0,-0.1565,-0.1562,-0.1562,-0.1559,-0.1534,-0.1589,-0.1594,-0.1541,-0.1489,-0.1504,-0.1468,-0.1298,-0.1212,-0.1192,-0.1054,-0.1029,-0.1029,-0.098,-0.0983,-0.1011,-0.1036,-0.1007,-0.0759,-0.0758,-0.0757,-0.0756,0,0,-0.1509,-0.1465,-0.1463,-0.1384,-0.1382,-0.1303,-0.1276,-0.1224,-0.1202,-0.1109,-0.1065,-0.1139,-0.1163,-0.0962,-0.0916,-0.0816,-0.0906,-0.0776,-0.1116,-0.1148,-0.1172,-0.1235,-0.1221,0,0,0,0,0]},{"header":{"parameterUnit":"m.s-1","parameterCategory":2,"la1":30.2991,"la2":30.254,"lo1":-89.0895,"lo2":-89.0444,"dy":0.0017,"dx":0.0017,"nx":28,"ny":28,"refTime":"2024-02-06T09:00:00:Z","depth":"2","parameterNumber":3,"parameterNumberName":"V-component_of_CURRENTS"},"data":[0,0,0,0,0,0,0,0,0,0,0,0,0,0,0,0,0,0,0,0,0,0,0,0,0,0,0,0,0,0,0,0,0,0,0,0,0,0,0,0,0,0,0,0,0,0,0,0,0,0,0,0,0,0,0,0,0,0,-0.0378,-0.0377,0,-0.0311,-0.031,-0.031,-0.0269,-0.0269,-0.0269,-0.0269,-0.0168,-0.0166,-0.0163,0,0,0,0,0,0,0,0,0,0,0,0,0,-0.0402,-0.0403,-0.0378,-0.0377,-0.0376,-0.0311,-0.031,-0.031,-0.0269,-0.0269,-0.0269,-0.0269,-0.0169,-0.0166,-0.0163,0,0,0,0,0,0,0,0,0,0,0,0,0,-0.037,-0.0403,-0.0378,-0.0348,-0.0344,-0.0311,-0.031,-0.0309,-0.0269,-0.0269,-0.0269,-0.0268,-0.017,-0.0166,-0.0163,-0.0148,0,0,-0.0152,-0.015,0,0,0,0,0,0,0,0,-0.0372,-0.0369,-0.0353,-0.035,-0.0346,-0.0298,-0.0282,-0.0253,-0.027,-0.0299,-0.0269,-0.0268,-0.0208,-0.0202,-0.0191,-0.0143,-0.0139,-0.0151,-0.0149,-0.0148,-0.0147,0,0,0,0,0,0,0,-0.0375,-0.0372,-0.0352,-0.0352,-0.0348,-0.0314,-0.031,-0.0276,-0.0256,-0.0296,-0.0293,-0.0285,-0.0206,-0.0195,-0.0188,-0.0137,-0.0151,-0.0148,-0.0146,-0.0145,-0.0057,-0.0057,0,0,0,0,0,0,-0.0386,-0.0374,-0.0354,-0.035,-0.0358,-0.0314,-0.0309,-0.0314,-0.0257,-0.0248,-0.0285,-0.0283,-0.0201,-0.0193,-0.0185,-0.0153,-0.0148,-0.0144,-0.0142,-0.0057,-0.0057,-0.0057,0,0,0,0,0,0,-0.0387,-0.0385,-0.0357,-0.0359,-0.0353,-0.0315,-0.032,-0.0313,-0.03,-0.0249,-0.0239,-0.0279,-0.0201,-0.019,-0.0153,-0.0149,-0.0143,-0.0139,-0.0058,-0.0057,-0.0057,-0.0097,0,0,0,0,0,0,-0.0388,-0.0386,-0.0397,-0.0361,-0.0353,-0.0342,-0.032,-0.0312,-0.0295,-0.0292,-0.024,-0.0231,-0.0199,-0.0159,-0.015,-0.0144,-0.0136,-0.0058,-0.0057,-0.0057,-0.0096,-0.0098,-0.01,0,0,0,0,0,-0.0389,-0.0409,-0.0398,-0.0395,-0.0369,-0.0342,-0.0336,-0.0306,-0.0295,-0.0293,-0.0255,-0.0232,-0.0151,-0.0156,-0.0145,-0.0138,-0.0058,-0.0058,-0.0057,-0.0095,-0.0097,-0.01,0,0,0,0,0,0,-0.0428,-0.0406,-0.0393,-0.0406,-0.0376,-0.0335,-0.0334,-0.031,-0.0279,-0.0277,-0.0229,-0.0217,-0.0186,-0.0156,-0.0163,-0.0113,-0.0101,-0.0099,-0.0133,-0.0135,-0.0138,-0.0142,-0.0133,0,0,0,0,0,-0.0441,-0.045,-0.0414,-0.0424,-0.0413,-0.0373,-0.036,-0.0338,-0.0304,-0.0291,-0.0252,-0.0212,-0.0177,-0.0152,-0.0122,-0.009,-0.0058,-0.0079,-0.0081,-0.0083,-0.008,-0.0031,-0.0028,-0.0056,-0.0056,-0.0056,0,0,-0.0459,-0.0447,-0.0452,-0.0432,-0.0409,-0.0396,-0.0365,-0.0349,-0.0333,-0.0284,-0.0256,-0.0222,-0.0173,-0.0141,-0.0124,-0.0113,-0.006,-0.0083,-0.0085,-0.008,-0.003,-0.0028,-0.0025,-0.0056,-0.0056,-0.0056,0,0,-0.0495,-0.0488,-0.0503,-0.0479,-0.0448,-0.042,-0.0417,-0.0375,-0.0353,-0.0321,-0.0283,-0.0242,-0.0192,-0.0149,-0.0123,-0.0116,-0.0079,-0.0111,-0.0116,-0.0069,-0.0066,-0.0064,-0.0027,-0.002,-0.0105,-0.0105,-0.0105,0,-0.0515,-0.0527,-0.0501,-0.0499,-0.0482,-0.0434,-0.0432,-0.0402,-0.0351,-0.0328,-0.032,-0.0233,-0.0193,-0.0139,-0.0137,-0.012,-0.0093,-0.0112,-0.0072,-0.0069,-0.0065,-0.0028,-0.002,-0.0107,-0.0106,-0.0106,-0.0106,0,-0.055,-0.0555,-0.056,-0.0541,-0.0521,-0.0512,-0.0463,-0.0439,-0.0407,-0.0367,-0.0316,-0.0258,-0.0202,-0.0185,-0.0157,-0.011,-0.01,-0.0088,-0.0068,-0.0065,-0.0026,-0.0017,-0.0109,-0.0109,-0.0108,-0.0108,0,0,-0.06,-0.0589,-0.0589,-0.0585,-0.0541,-0.0528,-0.05,-0.0454,-0.0429,-0.0377,-0.0338,-0.0272,-0.0234,-0.0201,-0.0156,-0.0111,-0.0063,-0.0091,-0.0088,-0.0058,0.0032,0.0054,0.0065,-0.0048,-0.0046,-0.0045,0.0047,0,-0.063,-0.0651,-0.0627,-0.0627,-0.0628,-0.057,-0.0551,-0.0501,-0.0446,-0.0396,-0.0322,-0.0274,-0.0241,-0.0213,-0.0161,-0.0086,-0.0042,-0.009,0.0029,0.0033,0.0048,0.0076,0.0056,0.0138,0.0055,0.0057,0.0058,0,-0.0664,-0.0673,-0.0693,-0.0671,-0.0665,-0.0655,-0.0601,-0.0569,-0.0482,-0.044,-0.0367,-0.0308,-0.0222,-0.0204,-0.0071,-0.0105,-0.0041,0.0013,0.0018,0.006,0.0071,0.0124,0.0157,0.0073,0.0072,0.0071,0.007,0,-0.0712,-0.071,-0.0732,-0.0723,-0.0695,-0.0688,-0.0662,-0.0589,-0.0553,-0.0459,-0.0425,-0.0318,-0.0259,-0.0165,-0.0045,-0.0058,0.0095,0.0094,0.0174,0.0175,0.0195,0.0196,0.0182,0.0182,0.0182,0.0182,0.0181,0,-0.0748,-0.0759,-0.0761,-0.0769,-0.0785,-0.0739,-0.0724,-0.0677,-0.06,-0.0552,-0.0453,-0.039,-0.0247,-0.0139,-0.0045,0.01,0.0101,0.0184,0.0208,0.0179,0.0178,0.015,0.0145,0.0185,0.0184,0.0184,0.0183,0,-0.0792,-0.0795,-0.0818,-0.0813,-0.0812,-0.082,-0.0776,-0.0754,-0.0678,-0.0609,-0.0583,-0.0432,-0.0282,-0.0143,0.0028,0.0106,0.0233,0.0278,0.0232,0.025,0.0278,0.027,0.0378,0.038,0.0381,0.0382,0.0383,0,-0.0816,-0.0838,-0.0862,-0.0882,-0.0883,-0.0882,-0.0878,-0.0806,-0.0767,-0.0629,-0.0599,-0.0438,-0.0306,-0.0048,0.0121,0.0298,0.0286,0.0365,0.0344,0.0289,0.0302,0.0292,0.0282,0.0352,0.0352,0.0353,0.0353,0,-0.0856,-0.0871,-0.0896,-0.0944,-0.096,-0.0962,-0.0941,-0.0922,-0.0818,-0.0742,-0.0603,-0.0485,-0.0222,-0.0003,0.0221,0.0312,0.0336,0.0382,0.0358,0.03,0.0271,0.0281,0.0271,0.0358,0.0358,0.0357,0.0357,0.0357,-0.0883,-0.092,-0.0959,-0.0999,-0.1021,-0.1026,-0.1011,-0.0958,-0.0886,-0.0736,-0.0619,-0.041,-0.0206,0.0137,0.0286,0.0416,0.041,0.0432,0.0428,0.0424,0.0399,0.0374,0.0476,0.0476,0.0476,0.0476,0.0476,0,-0.0908,-0.0952,-0.1001,-0.1048,-0.1074,-0.1069,-0.1037,-0.0986,-0.0888,-0.0728,-0.0566,-0.0314,-0.0066,0.0136,0.0357,0.048,0.0455,0.0484,0.0431,0.0426,0.0422,0.0394,0.0471,0.0472,0.0472,0.0472,0,0,-0.0924,-0.0981,-0.1012,-0.1074,-0.1101,-0.1097,-0.1071,-0.0971,-0.0841,-0.066,-0.049,-0.0283,-0.0036,0.0118,0.0273,0.0385,0.0366,0.0383,0.0374,0.0288,0.0282,0.0381,0.0332,0,0,0,0,0]}],[{"header":{"parameterUnit":"m.s-1","parameterCategory":2,"la1":30.2991,"la2":30.254,"lo1":-89.0895,"lo2":-89.0444,"dy":0.0017,"dx":0.0017,"nx":28,"ny":28,"refTime":"2024-02-06T09:00:00:Z","depth":"4","parameterNumber":2,"parameterNumberName":"U-component_of_CURRENTS"},"data":[0,0,0,0,0,0,0,0,0,0,0,0,0,0,0,0,0,0,0,0,0,0,0,0,0,0,0,0,0,0,0,0,0,0,0,0,0,0,0,0,0,0,0,0,0,0,0,0,0,0,0,0,0,0,0,0,0,0,-0.133,-0.1331,0,-0.1345,-0.1344,-0.1344,-0.1351,-0.1352,-0.1352,-0.1353,-0.1379,-0.138,-0.138,0,0,0,0,0,0,0,0,0,0,0,0,0,-0.1281,-0.1282,-0.133,-0.1331,-0.1331,-0.1345,-0.1344,-0.1344,-0.1351,-0.1352,-0.1352,-0.1353,-0.1379,-0.138,-0.138,0,0,0,0,0,0,0,0,0,0,0,0,0,-0.1296,-0.1282,-0.133,-0.1339,-0.1341,-0.1345,-0.1344,-0.1344,-0.1351,-0.1352,-0.1352,-0.1353,-0.1379,-0.138,-0.138,-0.1372,0,0,-0.1382,-0.1382,0,0,0,0,0,0,0,0,-0.1295,-0.1297,-0.1337,-0.1339,-0.134,-0.1351,-0.1337,-0.1356,-0.1351,-0.1343,-0.1353,-0.1353,-0.1373,-0.1374,-0.137,-0.1373,-0.1374,-0.1382,-0.1382,-0.1382,-0.1383,0,0,0,0,0,0,0,-0.1294,-0.1296,-0.1331,-0.1338,-0.134,-0.1334,-0.1337,-0.134,-0.1352,-0.1344,-0.1345,-0.1353,-0.1374,-0.1369,-0.137,-0.1375,-0.1382,-0.1382,-0.1383,-0.1383,-0.1465,-0.1466,0,0,0,0,0,0,-0.1302,-0.1296,-0.1331,-0.1332,-0.1323,-0.1335,-0.1338,-0.1343,-0.1351,-0.1354,-0.1353,-0.1354,-0.1368,-0.137,-0.1371,-0.1436,-0.1382,-0.1383,-0.1383,-0.1463,-0.1465,-0.1467,0,0,0,0,0,0,-0.13,-0.1305,-0.1331,-0.1318,-0.1321,-0.1336,-0.1342,-0.1343,-0.137,-0.1359,-0.1361,-0.1382,-0.1368,-0.1371,-0.1403,-0.1434,-0.1383,-0.1384,-0.1461,-0.1463,-0.1466,-0.1518,0,0,0,0,0,0,-0.1299,-0.1304,-0.1317,-0.1318,-0.1323,-0.1354,-0.1342,-0.1343,-0.1374,-0.1376,-0.1385,-0.1386,-0.1369,-0.1402,-0.1403,-0.1434,-0.1384,-0.1458,-0.1462,-0.1465,-0.1514,-0.1522,-0.1529,0,0,0,0,0,-0.1297,-0.1307,-0.1318,-0.1323,-0.1338,-0.1356,-0.1357,-0.1366,-0.1376,-0.1391,-0.1401,-0.1387,-0.1425,-0.1404,-0.1405,-0.1437,-0.1456,-0.1461,-0.1465,-0.151,-0.1521,-0.1529,0,0,0,0,0,0,-0.1291,-0.1309,-0.1321,-0.1336,-0.1358,-0.1359,-0.1373,-0.1387,-0.1405,-0.1414,-0.1404,-0.1406,-0.1446,-0.1439,-0.1416,-0.1473,-0.1441,-0.1446,-0.1476,-0.1485,-0.1493,-0.1466,-0.1385,0,0,0,0,0,-0.1298,-0.1313,-0.1332,-0.1349,-0.1361,-0.1376,-0.1389,-0.1401,-0.1414,-0.1424,-0.1435,-0.1448,-0.1459,-0.1472,-0.1478,-0.1507,-0.1477,-0.1533,-0.154,-0.1547,-0.1528,-0.151,-0.1514,-0.1481,-0.1481,-0.148,0,0,-0.1302,-0.1314,-0.1324,-0.135,-0.1364,-0.1383,-0.1385,-0.1415,-0.1436,-0.1424,-0.1464,-0.1476,-0.1474,-0.1504,-0.1522,-0.1506,-0.1547,-0.1552,-0.1557,-0.1534,-0.1515,-0.1518,-0.152,-0.1483,-0.1483,-0.1482,0,0,-0.1306,-0.133,-0.1341,-0.1363,-0.1396,-0.1406,-0.1427,-0.1454,-0.1473,-0.1513,-0.151,-0.1536,-0.1566,-0.156,-0.1561,-0.1616,-0.1587,-0.1642,-0.1657,-0.1643,-0.1644,-0.1645,-0.1628,-0.1627,-0.1646,-0.1647,-0.1647,0,-0.1314,-0.1326,-0.1349,-0.1367,-0.1387,-0.1423,-0.1444,-0.1467,-0.1506,-0.152,-0.1537,-0.1575,-0.1582,-0.1595,-0.1619,-0.163,-0.1619,-0.162,-0.1649,-0.1649,-0.1649,-0.1632,-0.1629,-0.165,-0.1649,-0.1649,-0.1649,0,-0.1316,-0.1341,-0.1352,-0.1385,-0.1412,-0.1439,-0.1476,-0.1514,-0.1552,-0.1569,-0.1612,-0.1622,-0.1637,-0.166,-0.1656,-0.1673,-0.1665,-0.1658,-0.1617,-0.1655,-0.1635,-0.1632,-0.1654,-0.1653,-0.1652,-0.1651,0,0,-0.1294,-0.1344,-0.1351,-0.1373,-0.1426,-0.1447,-0.1493,-0.1531,-0.1558,-0.1607,-0.163,-0.1664,-0.1676,-0.1677,-0.1687,-0.1682,-0.1687,-0.1679,-0.1677,-0.1647,-0.1658,-0.1558,-0.1544,-0.169,-0.169,-0.1689,-0.165,0,-0.1292,-0.1322,-0.135,-0.1394,-0.1415,-0.1466,-0.1502,-0.1547,-0.1587,-0.1622,-0.1641,-0.1671,-0.1681,-0.1701,-0.1697,-0.1689,-0.1679,-0.1697,-0.1637,-0.1635,-0.1528,-0.1537,-0.1688,-0.1647,-0.1646,-0.1646,-0.1645,0,-0.1279,-0.1303,-0.134,-0.1399,-0.1414,-0.145,-0.1512,-0.1551,-0.1601,-0.1631,-0.1659,-0.1679,-0.1691,-0.1695,-0.1675,-0.1693,-0.1675,-0.1663,-0.1661,-0.1536,-0.1527,-0.1599,-0.1639,-0.1639,-0.164,-0.164,-0.164,0,-0.1238,-0.1295,-0.1325,-0.1347,-0.1419,-0.1451,-0.1495,-0.1554,-0.1584,-0.1639,-0.166,-0.1677,-0.1692,-0.1673,-0.166,-0.1674,-0.1622,-0.1635,-0.1521,-0.1515,-0.1593,-0.1592,-0.1599,-0.1599,-0.16,-0.16,-0.16,0,-0.1209,-0.1238,-0.1315,-0.1332,-0.1373,-0.1438,-0.1486,-0.1529,-0.1586,-0.1606,-0.1663,-0.1665,-0.1689,-0.1671,-0.1651,-0.1565,-0.1611,-0.1505,-0.1488,-0.1622,-0.1624,-0.1592,-0.1591,-0.1598,-0.1599,-0.1599,-0.1599,0,-0.1154,-0.1207,-0.1247,-0.1327,-0.1355,-0.1388,-0.1474,-0.15,-0.1569,-0.1594,-0.1613,-0.1656,-0.163,-0.1627,-0.1592,-0.1539,-0.1478,-0.1436,-0.1573,-0.1568,-0.1387,-0.1391,-0.1302,-0.1298,-0.1294,-0.1292,-0.1289,0,-0.1123,-0.114,-0.1228,-0.1252,-0.1291,-0.1354,-0.1389,-0.1476,-0.1497,-0.1568,-0.1558,-0.1574,-0.1585,-0.1442,-0.1462,-0.1394,-0.138,-0.1345,-0.1365,-0.1359,-0.1353,-0.1362,-0.1369,-0.1284,-0.1283,-0.1282,-0.1281,0,-0.1059,-0.1105,-0.1136,-0.118,-0.1226,-0.1267,-0.1323,-0.1326,-0.1414,-0.1493,-0.1456,-0.1434,-0.1396,-0.1362,-0.1314,-0.1272,-0.1366,-0.1309,-0.1316,-0.1335,-0.1336,-0.1335,-0.1347,-0.1269,-0.1271,-0.1272,-0.1272,0,-0.101,-0.1013,-0.1059,-0.1088,-0.1143,-0.1151,-0.12,-0.1216,-0.1247,-0.1332,-0.1313,-0.133,-0.1376,-0.1296,-0.1253,-0.12,-0.1188,-0.1154,-0.1169,-0.1183,-0.1161,-0.1146,-0.0986,0,0,0,0,0,-0.0949,-0.0937,-0.0958,-0.098,-0.1033,-0.1058,-0.1136,-0.1188,-0.1275,-0.1211,-0.1258,-0.1218,-0.1163,-0.1175,-0.1092,-0.1197,-0.1191,-0.1097,-0.1161,-0.1202,-0.1216,-0.1202,0,0,0,0,0,0,-0.0903,-0.0917,-0.0919,-0.0885,-0.0879,-0.0917,-0.0961,-0.1025,-0.0998,-0.1092,-0.1061,-0.1136,-0.1092,-0.1174,-0.1059,-0.1062,-0.1077,-0.1117,-0.1114,-0.1195,-0.1207,-0.1218,-0.1208,0,0,0,0,0]},{"header":{"parameterUnit":"m.s-1","parameterCategory":2,"la1":30.2991,"la2":30.254,"lo1":-89.0895,"lo2":-89.0444,"dy":0.0017,"dx":0.0017,"nx":28,"ny":28,"refTime":"2024-02-06T09:00:00:Z","depth":"4","parameterNumber":3,"parameterNumberName":"V-component_of_CURRENTS"},"data":[0,0,0,0,0,0,0,0,0,0,0,0,0,0,0,0,0,0,0,0,0,0,0,0,0,0,0,0,0,0,0,0,0,0,0,0,0,0,0,0,0,0,0,0,0,0,0,0,0,0,0,0,0,0,0,0,0,0,-0.0334,-0.0334,0,-0.0313,-0.0313,-0.0312,-0.031,-0.031,-0.0311,-0.0311,-0.0263,-0.0262,-0.0261,0,0,0,0,0,0,0,0,0,0,0,0,0,-0.0323,-0.0323,-0.0334,-0.0334,-0.0333,-0.0313,-0.0313,-0.0312,-0.031,-0.031,-0.0311,-0.0311,-0.0264,-0.0262,-0.026,0,0,0,0,0,0,0,0,0,0,0,0,0,-0.0318,-0.0324,-0.0334,-0.0329,-0.0329,-0.0313,-0.0313,-0.0312,-0.031,-0.031,-0.0311,-0.0311,-0.0264,-0.0262,-0.026,-0.0242,0,0,-0.0254,-0.0253,0,0,0,0,0,0,0,0,-0.0318,-0.0319,-0.033,-0.033,-0.0329,-0.0314,-0.0291,-0.0287,-0.031,-0.0318,-0.0311,-0.0311,-0.0277,-0.0274,-0.0271,-0.024,-0.0238,-0.0254,-0.0252,-0.0251,-0.0251,0,0,0,0,0,0,0,-0.0319,-0.0319,-0.0326,-0.033,-0.0329,-0.0311,-0.0311,-0.029,-0.0297,-0.0317,-0.0317,-0.0313,-0.0277,-0.0273,-0.027,-0.0237,-0.0254,-0.0252,-0.025,-0.025,-0.0178,-0.0178,0,0,0,0,0,0,-0.0323,-0.032,-0.0327,-0.0326,-0.0323,-0.0311,-0.0311,-0.0319,-0.0297,-0.0294,-0.0313,-0.0313,-0.0276,-0.0272,-0.0268,-0.0246,-0.0251,-0.0249,-0.0248,-0.0179,-0.0178,-0.0177,0,0,0,0,0,0,-0.0323,-0.0324,-0.0328,-0.0321,-0.032,-0.0312,-0.032,-0.0318,-0.0319,-0.0294,-0.0291,-0.0315,-0.0276,-0.0271,-0.025,-0.0244,-0.0249,-0.0247,-0.018,-0.0179,-0.0178,-0.0201,0,0,0,0,0,0,-0.0323,-0.0324,-0.0336,-0.0322,-0.0321,-0.0323,-0.0319,-0.0318,-0.0315,-0.0316,-0.0295,-0.0291,-0.0276,-0.0253,-0.0248,-0.0241,-0.0245,-0.018,-0.0179,-0.0178,-0.0201,-0.0201,-0.0201,0,0,0,0,0,-0.0322,-0.0339,-0.0337,-0.0338,-0.0336,-0.0323,-0.0321,-0.0315,-0.0315,-0.0316,-0.0299,-0.0291,-0.0241,-0.0251,-0.0245,-0.0237,-0.0181,-0.0179,-0.0178,-0.0201,-0.0201,-0.0201,0,0,0,0,0,0,-0.0343,-0.034,-0.0337,-0.0353,-0.034,-0.0322,-0.0327,-0.0317,-0.0306,-0.0309,-0.0285,-0.028,-0.026,-0.0242,-0.0253,-0.0211,-0.0209,-0.0206,-0.0228,-0.0228,-0.0228,-0.0233,-0.0243,0,0,0,0,0,-0.0352,-0.0365,-0.0349,-0.0362,-0.0358,-0.0342,-0.0338,-0.0331,-0.0316,-0.0312,-0.0293,-0.0271,-0.0248,-0.0234,-0.0214,-0.0191,-0.0167,-0.018,-0.018,-0.018,-0.0179,-0.0136,-0.0132,-0.0173,-0.0173,-0.0173,0,0,-0.0365,-0.0364,-0.0372,-0.0367,-0.036,-0.0354,-0.0341,-0.0338,-0.0331,-0.0307,-0.0296,-0.0273,-0.0242,-0.0219,-0.0208,-0.0204,-0.0156,-0.0178,-0.0179,-0.0178,-0.0134,-0.013,-0.0127,-0.0172,-0.0172,-0.0172,0,0,-0.039,-0.0394,-0.0409,-0.0397,-0.0385,-0.0371,-0.0371,-0.0351,-0.0343,-0.0324,-0.0304,-0.0274,-0.0245,-0.0215,-0.0198,-0.0182,-0.0161,-0.0177,-0.0178,-0.0136,-0.0133,-0.013,-0.0097,-0.0091,-0.0173,-0.0173,-0.0173,0,-0.0405,-0.042,-0.0409,-0.0411,-0.0406,-0.038,-0.0383,-0.0366,-0.0341,-0.0328,-0.0325,-0.0266,-0.024,-0.02,-0.0194,-0.0182,-0.016,-0.0184,-0.0137,-0.0133,-0.013,-0.0097,-0.0089,-0.0174,-0.0174,-0.0174,-0.0174,0,-0.043,-0.0442,-0.0447,-0.0443,-0.0434,-0.0432,-0.0404,-0.0391,-0.0375,-0.0351,-0.0315,-0.0274,-0.0236,-0.022,-0.0203,-0.016,-0.0155,-0.0147,-0.0142,-0.0127,-0.0093,-0.0085,-0.0176,-0.0175,-0.0175,-0.0175,0,0,-0.0463,-0.0466,-0.0469,-0.0473,-0.045,-0.0446,-0.043,-0.0404,-0.0392,-0.0355,-0.0331,-0.0278,-0.0251,-0.0228,-0.0196,-0.0156,-0.0108,-0.0142,-0.014,-0.0118,-0.0023,-0.0034,-0.0026,-0.0096,-0.0095,-0.0094,-0.0012,0,-0.0485,-0.0508,-0.0496,-0.0506,-0.0512,-0.048,-0.047,-0.0441,-0.0406,-0.0373,-0.0315,-0.0282,-0.0255,-0.0235,-0.0189,-0.0129,-0.0087,-0.0131,-0.0034,-0.0031,-0.0048,-0.0017,-0.0089,-0.0006,-0.0004,-0.0003,-0.0002,0,-0.0507,-0.0521,-0.0545,-0.0544,-0.0544,-0.0544,-0.0519,-0.0499,-0.044,-0.0412,-0.0357,-0.0311,-0.0239,-0.0223,-0.0109,-0.0141,-0.0084,-0.0037,-0.0033,-0.0029,-0.0026,-0.002,0.0013,0.0012,0.0011,0.001,0.0009,0,-0.0536,-0.055,-0.0576,-0.0574,-0.0568,-0.0573,-0.0564,-0.0518,-0.0497,-0.0429,-0.0405,-0.0318,-0.027,-0.0188,-0.0087,-0.0096,0.0034,0.0035,0.0081,0.008,0.0073,0.0069,0.0116,0.0116,0.0116,0.0116,0.0115,0,-0.0556,-0.0575,-0.0599,-0.061,-0.0638,-0.0614,-0.0617,-0.059,-0.054,-0.0508,-0.0428,-0.0379,-0.0259,-0.0168,-0.0086,0.0024,0.004,0.0089,0.0106,0.0062,0.0055,0.0079,0.0074,0.0119,0.0118,0.0117,0.0117,0,-0.0576,-0.0592,-0.0624,-0.0645,-0.0655,-0.0672,-0.0663,-0.0652,-0.0603,-0.0555,-0.0534,-0.0415,-0.0293,-0.0176,-0.003,0.0025,0.0129,0.0162,0.0106,0.0117,0.0146,0.0138,0.0222,0.0223,0.0223,0.0224,0.0224,0,-0.0584,-0.0608,-0.0659,-0.0686,-0.07,-0.072,-0.073,-0.0693,-0.0668,-0.0571,-0.0546,-0.042,-0.0333,-0.0127,-0.0014,0.0142,0.0158,0.0202,0.0177,0.0151,0.0159,0.0151,0.0143,0.0224,0.0224,0.0225,0.0225,0,-0.0599,-0.0628,-0.0658,-0.072,-0.0752,-0.0771,-0.0775,-0.076,-0.0696,-0.066,-0.0533,-0.0412,-0.0272,-0.0117,0.0004,0.0112,0.0168,0.0207,0.0206,0.0183,0.0154,0.016,0.0152,0.0226,0.0226,0.0226,0.0226,0,-0.061,-0.0643,-0.0693,-0.0739,-0.0786,-0.0801,-0.0801,-0.0755,-0.0719,-0.0607,-0.0565,-0.0402,-0.0302,-0.0131,-0.0019,0.0086,0.0107,0.0125,0.0129,0.0129,0.0071,0.0019,0.0073,0,0,0,0,0,-0.0611,-0.065,-0.0701,-0.0753,-0.0799,-0.0818,-0.0817,-0.08,-0.0744,-0.0657,-0.0604,-0.0466,-0.0266,-0.0171,-0.0066,-0.0034,0.0104,0.0088,0.0121,0.0233,0.0231,0.0178,0,0,0,0,0,0,-0.0615,-0.067,-0.0699,-0.0749,-0.0782,-0.0819,-0.0818,-0.0783,-0.0721,-0.065,-0.0537,-0.0461,-0.0266,-0.0325,-0.0069,-0.0035,-0.0006,0.0188,0.019,0.0234,0.0232,0.0231,0.0176,0,0,0,0,0]}]]